Regional Weather Roundup
Issued by NWS

Home | Current Version | Previous Version | Text Only | Print | Product List | Glossary On
Versions: 1 2 3 4 5 6 7 8 9 10 11 12 13 14 15 16 17 18 19 20 21 22 23 24 25 26 27 28 29 30 31 32 33 34 35 36 37 38 39 40 41 42 43 44 45 46 47 48 49 50
000
ASUS43 KDTX 240510
RWRMI
MICHIGAN HOURLY REGIONAL WEATHER ROUNDUP
NATIONAL WEATHER SERVICE DETROIT/PONTIAC MI
100 AM EDT WED SEP 24 2014

NOTE: "FAIR" INDICATES FEW OR NO CLOUDS BELOW 12,000 FEET WITH NO
SIGNIFICANT WEATHER AND/OR OBSTRUCTION TO VISIBILITY.

MIZ047>049-052>055-059>063-066>070-074>076-081>083-240600-
SOUTHEAST LOWER MICHIGAN

CITY           SKY/WX    TMP DP  RH WIND       PRES   REMARKS
ADRIAN         CLEAR     49  47  93 N3        30.37S
ALMA           PTCLDY    50  49  97 CALM      30.36S FOG
ANN ARBOR      FOG       46  43  89 CALM      30.37S VSB 1
BAD AXE        CLEAR     53  51  93 S3        30.37S
CARO           CLEAR     49  48  99 CALM      30.36S FOG
DETROIT CITY   CLEAR     56  48  74 CALM      30.37S
DETROIT        PTCLDY    54  50  86 CALM      30.37S
FLINT          CLEAR     55  49  80 CALM      30.37
GROSSE ILE     CLEAR     57  52  82 CALM      30.36S
HILLSDALE      CLEAR     53  50  90 SE3       30.37R
HOWELL         CLEAR     53  51  94 CALM      30.37S

CITY           SKY/WX    TMP DP  RH WIND       PRES   REMARKS
JACKSON        CLEAR     52  49  89 SE3       30.36S
LAMBERTVILLE   CLEAR     50  46  87 CALM      30.37S FOG
LANSING        CLEAR     52  50  93 CALM      30.37R
LAPEER         FAIR      48  47  97 CALM      30.38R
MASON          CLEAR     52  50  91 CALM      30.36S
MONROE         CLEAR     48  46  93 CALM      30.35S
MT. CLEMENS    CLEAR     53  53  99 W2        30.36R
PONTIAC        CLEAR     51  49  92 CALM      30.37R
PORT HOPE        N/A     58  50  75 VRB5      30.35R
PORT HURON     FOG       46  46 100 CALM      30.38S VSB 1/2
TRI CITIES     CLEAR     56  51  84 CALM      30.37R
TROY           CLEAR     56  50  81 CALM      30.39R
SAGINAW HB     CLEAR     54  54 100 S5        30.36R
$$
MIZ043>046-050>051-056>058-064>065-071>073-077>080-240600-
SOUTHWEST LOWER MICHIGAN

CITY           SKY/WX    TMP DP  RH WIND       PRES   REMARKS
BATTLE CREEK   CLEAR     54  51  90 CALM      30.36S
BENTON HARBOR  CLEAR     47  46  97 E5        30.33S
BIG RAPIDS     MOCLDY    50  50 100 CALM      30.35S
COLDWATER      CLEAR     51  49  96 SE5       30.36R
FREMONT        FAIR      50  50  98 CALM      30.33F
HOLLAND        CLEAR     50  48  93 E3        30.34F
GRAND RAPIDS   CLEAR     53  51  93 CALM      30.35S
IONIA          FOG       51  51  99 CALM      30.34S VSB 1/4
KALAMAZOO      CLEAR     51  49  92 CALM      30.35S
LUDINGTON      FOG       47  47  97 CALM      30.34S VSB 3/4
MARSHALL       CLEAR     48  47  98 CALM      30.35S
MOUNT PLEASANT FOG       51  50  98 CALM      30.35S VSB 1/4
MUSKEGON       CLEAR     51  47  86 SE3       30.34S
SOUTH HAVEN    CLEAR     49  48  96 CALM      30.33S
$$
MIZ016>042-240600-
NORTHERN LOWER MICHIGAN

CITY           SKY/WX    TMP DP  RH WIND       PRES   REMARKS
ALPENA         CLEAR     50  48  93 CALM      30.35S
BEAVER ISLAND  CLEAR     50  49  97 CALM      30.33R
BELLAIRE       CLEAR     50  48  93 CALM      30.34R FOG
CADILLAC       FOG       48  48  99 CALM      30.34S VSB<1/4
CHARLEVOIX     CLEAR     55  55  99 SE5       30.36R
FRANKFORT      CLEAR     49  46  89 CALM      30.33S
GAYLORD        CLEAR     50  47  89 CALM      30.35S
GRAYLING       FOG       49  49 100 CALM      30.36S VSB 1
HARBOR SPRINGS CLEAR     55  53  94 NE3       30.33S
HOUGHTON LAKE  FOG       48  48 100 E3        30.35S VSB 1
MANISTEE       CLEAR     46  45  93 E5        30.34S VSB 1
OSCODA         CLEAR     51  49  93 CALM      30.34S
PELLSTON       CLEAR     48  47  96 CALM      30.34S
ROGERS CITY    CLEAR     56  54  92 S6        30.35S
TRAVERSE CITY  CLEAR     54  51  90 CALM      30.33R
$$
MIZ007>008-015-240600-
EASTERN UPPER MICHIGAN

CITY           SKY/WX    TMP DP  RH WIND       PRES   REMARKS
KINROSS        CLEAR     52  52 100 SE3       30.33S
MACKINAC ISLAN CLEAR     56  54  92 SE10      30.33R
NEWBERRY       CLEAR     52  51  97 SW9       30.31S
S. S. MARIE    CLEAR     55  53  93 CALM      30.33S
$$
MIZ004>006-011>014-085-240600-
CENTRAL UPPER MICHIGAN

CITY           SKY/WX    TMP DP  RH WIND       PRES   REMARKS
MANISTIQUE     CLEAR     54  53  97 SW5       30.31R
ESCANABA       CLEAR     55  52  88 CALM      30.29S
MENOMINEE      CLEAR     54  50  87 S5        30.29R
SAWYER-GWINN   CLEAR     54  52  90 S7        30.28S
$$
MIZ001>003-009>011-084-240600-
WESTERN UPPER MICHIGAN

CITY           SKY/WX    TMP DP  RH WIND       PRES   REMARKS
IRON MOUNTAIN  CLEAR     52  50  93 SE3       30.28R
HOUGHTON       CLEAR     48  45  89 CALM      30.23S
COPPER HARBOR    N/A     56  50  80 SW9       30.21S
IRONWOOD       CLEAR     57  52  82 S8        30.22R
$$

ABBREVIATIONS USED IN REMARKS
   TC - TEMPERATURE IN CELSIUS
  WCI - WIND CHILL INDEX
   HX - HEAT INDEX
  VSB - VISIBILITY




USA.gov is the U.S. government's official web portal to all federal, state and local government web resources and services.